Starlink 30401

operational
NORAD ID: 57818 Int'l Des: 2023-138 Owner: SPXS Country: US Constellation: starlink
LEOCIRCULAR

Starlink 30401について

説明を読み込み中...

リアルタイム位置

3D地球を読み込み中...

次回通過

高度履歴

Altitude vs Time

uPlot chart will show altitude changes over time

軌道要素

1 57818U 23138L 26036.09994125 -.00000033 00000-0 12633-4 0 9998
2 57818 43.0033 53.1456 0001053 269.3454 90.7267 15.02534387133714
Epoch: Feb 5, 2026 • Age: 7 hours

現在のステータス

高度 562.9 km
速度 7.59 km/s
衛星直下点 42.99°N, 125.76°W
打ち上げ日 Sep 9, 2023
運用期間 2.4 years
タイプ internet

技術仕様

分類 Payload
質量 730.00 kg
乾燥質量 700.00 kg
総質量 730.00 kg
長さ 0.30 m
直径 4.10 m
スパン 29.00 m
形状 Box + pan
製造者 SPXS
バスタイプ Starlink V2M
フェーズステータス In Orbit
所有者/国 SPXS/US

大規模コンステレーション

Loading constellations...